Flag Weather past 2 weeks in Ravensburg, Baden-Württemberg, Germany

Now
41 °F

Fog.


Feels Like: 41 °F
Forecast: 38 / 52 °F
Wind: 1 mph from North

Location: Friedrichshafen Airport

Current Time: Nov 21, 2014 at 7:14:35 PM

Latest Report: Nov 21, 2014 at 6:20 PM


Visibility: 2 mi

Pressure: 30.15 "Hg

Humidity: 87%

Dew point: 37 °F

Location of RavensburgLocation

Historic Weather in Ravensburg — Graph

°F

Ravensburg temperature yesterday

Maximum temperature yesterday: 45 °F (at 1:20 PM)
Minimum temperature yesterday: 34 °F (at 2:50 AM)
Average temperature yesterday: 39 °F

Past Weeks' High & Low Weather Summary

 TemperatureHumidityPressure
High57 °F (Nov 8, 2:20 PM)94% (Nov 13, 8:50 AM)30.27 "Hg (Nov 13, 8:50 AM)
Low32 °F (Nov 8, 7:20 AM)47% (Nov 19, 3:20 PM)29.53 "Hg (Nov 15, 7:20 PM)
Average44 °F84%29.85 "Hg
* Reported Nov 6 5:20 PM — Nov 21 5:50 PM, Ravensburg, Weather by CustomWeather, © 2014

Note: Actual official high and low records may vary slightly from our data, if they occured in-between our weather recording intervals... More about our weather records

Advertising

Ravensburg weather history for previous 24 hours

 ConditionsComfort  
Time TempWeatherWind HumidityBarometerVisibility
5:50 PM
Nov 21
43 °FClear.2 mph87%30.15 "Hg5 mi
5:20 PM45 °FClear.1 mph81%30.15 "Hg10 mi
4:20 PM46 °FSprinkles. Partly sunny.1 mph76%30.15 "HgN/A
3:50 PM46 °FSprinkles. Overcast.3 mph76%30.15 "HgN/A
3:20 PM46 °FLight rain. Overcast.3 mph76%30.15 "HgN/A
2:50 PM46 °FMostly cloudy.2 mph76%30.15 "HgN/A
2:20 PM46 °FOvercast.3 mph76%30.15 "HgN/A
1:50 PM46 °FMostly cloudy.3 mph76%30.15 "HgN/A
1:20 PM46 °FMostly cloudy.3 mph76%30.15 "HgN/A
12:50 PM46 °FMostly cloudy.2 mph76%30.15 "HgN/A
12:20 PM45 °FMostly cloudy.1 mph76%30.18 "HgN/A
11:50 AM45 °FMore clouds than sun.3 mph76%30.18 "HgN/A
11:20 AM45 °FLow clouds.3 mph76%30.18 "HgN/A
10:50 AM45 °FPartly sunny.3 mph76%30.18 "HgN/A
10:20 AM43 °FMostly cloudy.5 mph81%30.18 "HgN/A
9:50 AM43 °FLow clouds.6 mph87%30.18 "Hg6 mi
9:20 AM43 °FLow clouds.6 mph81%30.18 "Hg5 mi
8:50 AM41 °FLow clouds.5 mph87%30.18 "Hg4 mi
8:20 AM41 °FMore clouds than sun.3 mph87%30.18 "Hg4 mi
7:50 AM41 °FLow clouds.3 mph87%30.18 "Hg4 mi
7:20 AM41 °FLow clouds.3 mph87%30.18 "Hg4 mi
6:50 AM41 °FMostly cloudy.5 mph87%30.18 "Hg4 mi
6:20 AM41 °FMostly cloudy.5 mph87%30.18 "Hg4 mi
5:50 AM41 °FLow clouds.3 mph87%30.18 "Hg4 mi
5:20 AM41 °FLow clouds.2 mph87%30.18 "Hg5 mi
4:50 AM41 °FLow clouds.2 mph87%30.21 "Hg5 mi
4:20 AM41 °FMostly cloudy.5 mph87%30.18 "Hg5 mi
3:50 AM41 °FOvercast.3 mph87%30.21 "Hg5 mi
3:20 AM41 °FLow clouds.3 mph87%30.21 "Hg6 mi
2:50 AM41 °FLow clouds.3 mph87%30.21 "Hg5 mi
2:20 AM41 °FLow clouds.1 mph87%30.21 "Hg4 mi
1:50 AM41 °FLow clouds.3 mph87%30.21 "Hg6 mi
1:20 AM41 °FLow clouds.3 mph81%30.21 "Hg6 mi
12:50 AM41 °FOvercast.3 mph87%30.21 "HgN/A
12:20 AM41 °FOvercast.6 mph87%30.24 "HgN/A
11:50 PM
Nov 20
41 °FOvercast.5 mph81%30.24 "HgN/A
11:20 PM41 °FOvercast.5 mph81%30.24 "HgN/A
10:50 PM41 °FOvercast.6 mph81%30.24 "HgN/A
10:20 PM41 °FMostly cloudy.5 mph81%30.24 "Hg6 mi
9:50 PM41 °FMostly cloudy.3 mph81%30.24 "Hg6 mi
9:20 PM39 °FMostly cloudy.5 mph87%30.24 "Hg5 mi
8:20 PM39 °FClear.2 mph87%30.24 "Hg5 mi
7:50 PM39 °FClear.2 mph87%30.24 "Hg5 mi
7:20 PM39 °FClear.3 mph87%30.24 "Hg10 mi
Weather by CustomWeather, © 2014

See weather overviewHow to use our weather pages